La Paz, Mexico

4:52 PM MDT on August 18, 2017 (GMT -0600)
Gen Manuel Marquez De Leon

Weather History for MMLP - February, 2014

Change the Weather History Date:

Monday, February 24, 2014

  Actual Average Record
Temperature  
Mean Temperature 74 °F -  
Max Temperature 87 °F 80 °F 95 °F (2002)
Min Temperature 60 °F 54 °F 42 °F (2011)
Cooling Degree Days 8    
Growing Degree Days 24 (Base 50)    
Moisture  
Dew Point 50 °F    
Average Humidity 47    
Maximum Humidity 88    
Minimum Humidity 21    
Precipitation  
Precipitation 0.00 in - - ()
Sea Level Pressure  
Sea Level Pressure 29.97 in    
Wind  
Wind Speed 7 mph ()    
Max Wind Speed 14 mph    
Max Gust Speed -    
Visibility 9.9 miles    
Events      
Averages and records for this station are not official NWS values.
T = Trace of Precipitation, MM = Missing Value Source: Averaged Metar Reports

Daily Weather History Graph

Daily Weather History Graph

Search for Another Location

Airport or City:

Trip Planner

Search our weather history database for the weather conditions in past years. The results will help you decide how hot, cold, wet, or windy it might be!

Date:

Astronomy

Feb. 24, 2014 Rise Set
Actual Time 6:47 AM MST 6:21 PM MST
Civil Twilight 6:24 AM MST 6:44 PM MST
Nautical Twilight 5:58 AM MST 7:11 PM MST
Astronomical Twilight 5:32 AM MST 7:37 PM MST
Moon 2:30 AM MST (2/24) 1:45 PM MST (2/24)
Length of Visible Light 12h 19m
Length of Day
11h 33m
Waning Crescent, 27% of the Moon is Illuminated
Feb 24
Waning Crescent
Mar 1
New
Mar 8
First Quarter
Mar 16
Full
Mar 23
Last Quarter

Hourly Weather History & Observations

Time (MST) Temp. Dew Point Humidity Pressure Visibility Wind Dir Wind Speed Gust Speed Precip Events Conditions
1:50 AM 63 °F 56 °F 71% 29.96 in 2 mi SE 8.9 mph - -  
4:50 AM 62 °F 55 °F 71% 29.96 in 2 mi SSE 8.9 mph - -  
5:50 AM 57.2 °F 51.8 °F 82% 29.98 in 10.0 mi South 8.1 mph - N/A   Partly Cloudy
7:43 AM 55.4 °F 51.8 °F 88% 30.03 in 10.0 mi South 10.4 mph - N/A   Partly Cloudy
7:50 AM 62 °F 54 °F 69% 30.01 in 12 mi South 4.5 mph - -  
8:42 AM 62.6 °F 51.8 °F 68% 30.02 in 10.0 mi SSE 13.8 mph - N/A   Partly Cloudy
9:45 AM 68.0 °F 50.0 °F 52% 30.03 in 10.0 mi South 6.9 mph - N/A   Partly Cloudy
10:40 AM 76 °F 52 °F 32% 30.05 in 19 mi South 6.7 mph - -   Clear
10:45 AM 73.4 °F 46.4 °F 38% 30.03 in 10.0 mi WSW 9.2 mph - N/A   Scattered Clouds
11:49 AM 77.0 °F 42.8 °F 29% 30.01 in 10.0 mi SSW 9.2 mph - N/A   Scattered Clouds
12:40 PM 80.6 °F 39.2 °F 23% 29.98 in 10.0 mi SW 6.9 mph - N/A   Scattered Clouds
1:40 PM 86 °F 53 °F 22% 29.98 in 19 mi NW 6.7 mph - -   Clear
1:42 PM 82.4 °F 39.2 °F 21% 29.95 in 10.0 mi South 4.6 mph - N/A   Scattered Clouds
2:47 PM 84.2 °F 42.8 °F 23% 29.91 in 10.0 mi NNW 11.5 mph - N/A   Mostly Cloudy
3:48 PM 86.0 °F 42.8 °F 22% 29.89 in 10.0 mi North 6.9 mph - N/A   Mostly Cloudy
4:40 PM 82.4 °F 44.6 °F 26% 29.91 in 10.0 mi NNW 6.9 mph - N/A   Mostly Cloudy
4:45 PM 86 °F 53 °F 22% 29.88 in 19 mi NW 6.7 mph - -   Partly Cloudy
5:52 PM 77.0 °F 51.8 °F 41% 29.93 in 10.0 mi West 6.9 mph - N/A   Mostly Cloudy
6:51 PM 73.4 °F 51.8 °F 47% 29.96 in 10.0 mi SW 5.8 mph - N/A   Scattered Clouds
7:42 PM 71.6 °F 53.6 °F 53% 29.98 in 10.0 mi West 9.2 mph - N/A   Scattered Clouds
7:45 PM 74 °F 57 °F 46% 29.93 in 2 mi South 6.7 mph - -   Mostly Cloudy
8:47 PM 69.8 °F 53.6 °F 56% 29.98 in 10.0 mi South 9.2 mph - N/A   Scattered Clouds
9:40 PM 68.0 °F 53.6 °F 60% 29.97 in 10.0 mi South 6.9 mph - N/A   Scattered Clouds
10:40 PM 68.0 °F 53.6 °F 60% 29.98 in 10.0 mi SSW 6.9 mph - N/A   Scattered Clouds
10:50 PM 69 °F 56 °F 55% 29.96 in 2 mi South 2.2 mph - -   Partly Cloudy